This is the latest recevied weather packets stored in our database for station/object KR4ELZ. If no packets are shown the sender has not sent any weather packets the latest 1 day(s).
| Time | Temp. | Humidity | Pressure | Rain* | Wind** | Luminosity | Snow |
|---|---|---|---|---|---|---|---|
| 1778069929 | 12.78° C | 99% | 1009.6 hPa | 0 mm | - | 21 W/m² | - |
| 1778067811 | 12.78° C | 99% | 1010.2 hPa | 1.27 mm | - | 3 W/m² | - |
| 1778067206 | 12.78° C | 99% | 1009.7 hPa | 1.78 mm | - | 2 W/m² | - |
| 1778066600 | 12.78° C | 99% | 1010.9 hPa | 6.1 mm | - | 2 W/m² | - |
| 1778065086 | 14.44° C | 99% | 1010.8 hPa | 30.73 mm | - | 0 W/m² | - |
| 1778064783 | 15° C | 99% | 1010.6 hPa | 18.54 mm | - | 0 W/m² | - |
| 1778064178 | 15.56° C | 99% | 1009.6 hPa | 7.11 mm | - | 0 W/m² | - |
| 1778063573 | 15.56° C | 99% | 1009.5 hPa | 1.78 mm | - | 0 W/m² | - |
| 1778063270 | 15.56° C | 99% | 1008.7 hPa | 0 mm | - | 0 W/m² | - |
| 1778062968 | 15.56° C | 99% | 1008.2 hPa | 0 mm | - | 0 W/m² | - |
| 1778062361 | 15.56° C | 99% | 1007.6 hPa | 0 mm | - | 0 W/m² | - |
| 1778061757 | 15.56° C | 99% | 1007.6 hPa | 1.27 mm | - | 0 W/m² | - |
| 1778061152 | 15° C | 99% | 1008.4 hPa | 15.49 mm | - | 0 W/m² | - |
| 1778060547 | 15° C | 98% | 1009.3 hPa | 19.81 mm | - | 0 W/m² | - |
| 1778059942 | 15.56° C | 98% | 1009.3 hPa | 45.47 mm | - | 0 W/m² | - |
| 1778059640 | 16.67° C | 98% | 1008.9 hPa | 49.78 mm | - | 0 W/m² | - |
| 1778059035 | 17.78° C | 97% | 1008.3 hPa | 51.56 mm | - | 0 W/m² | - |
| 1778058732 | 19.44° C | 98% | 1007.7 hPa | 35.31 mm | - | 0 W/m² | - |
| 1778058430 | 19.44° C | 98% | 1007 hPa | 33.53 mm | - | 0 W/m² | - |
| 1778057519 | 19.44° C | 97% | 1007.3 hPa | 1.78 mm | - | 0 W/m² | - |
| 1778057216 | 19.44° C | 96% | 1007 hPa | 6.1 mm | - | 0 W/m² | - |
| 1778056005 | 20.56° C | 92% | 1007.6 hPa | 0 mm | - | 0 W/m² | - |
| 1778055101 | 21.11° C | 86% | 1007.4 hPa | 0 mm | - | 0 W/m² | - |
| 1778054798 | 21.67° C | 85% | 1007 hPa | 0 mm | - | 0 W/m² | - |
| 1778053889 | 21.11° C | 84% | 1006.3 hPa | 0 mm | - | 0 W/m² | - |
* Rain latest hour (hover to see other rain measurements)
** Current wind speed in m/s (hover to see current wind gust speed)